STARLINK-32128 (60272 NORAD) Tracking and Keplerian Element Data

This shows tracking and keplerian element data for the satellite.

Feedback or suggestion? Click here.




ElementValue
Catalog60272
NameSTARLINK-32128
Epoch Orbit1310
Epoch Day286.36868984
Epoch Year2024
RAAN278.4085
Inclination53.1592
Eccentricity0.0001473
Argument of Perigee92.2734
Mean Anonmoly267.8439
Mean Motion15.39603406
Decay Rate2.808E-05
L11 60272U 24131T 24286.36868984 .00002808 00000+0 80200-4 0 9993
L22 60272 53.1592 278.4085 0001473 92.2734 267.8439 15.39603406 13101



Live tracking and technical data element details for STARLINK-32128 (NORAD 60272). STARLINK-32128 can be tracked NOW for your location showing map with azimuth and elevation plus other details from your city location.







IsCatalogInMostPopularTable: catalog: 60272, numindb: 10
Update: records affected: 1



GetName: 60272 STARLINK-32128

Hit Count: updated at: Thu, 23 Jan 2025 14:23:53 GMT